Date,TemperatureHighF,TemperatureAvgF,TemperatureLowF,DewpointHighF,DewpointAvgF,DewpointLowF,HumidityHigh,HumidityAvg,HumidityLow,PressureMaxIn,PressureMinIn,WindSpeedMaxMPH,WindSpeedAvgMPH,GustSpeedMaxMPH,PrecipitationSumIn
2013-1-1,50.2,45.8,40.8,42.9,33.8,17.6,89,65,33,30.11,29.90,16,4,16,0.04
2013-1-2,42.4,39.2,35.5,38.5,27.2,16.9,91,63,44,30.22,29.96,14,3,16,0.01
2013-1-3,44.9,36.2,31.2,29.1,21.9,16.5,79,57,32,30.27,30.17,12,1,12,0.00
2013-1-4,42.8,35.4,28.6,23.6,21.3,19.4,69,57,41,30.33,30.22,20,5,20,0.00
2013-1-5,50.4,40.4,32.8,32.2,22.5,19.0,72,50,31,30.42,30.22,22,2,22,0.00
2013-1-6,49.5,43.5,37.2,32.9,30.9,29.0,76,61,50,30.24,30.07,15,4,22,0.00
2013-1-7,48.9,39.6,33.0,30.1,26.1,23.3,77,59,40,30.47,30.18,18,4,19,0.00
2013-1-8,57.1,38.4,23.8,37.4,30.3,21.6,93,75,46,30.49,30.38,9,1,9,0.00
2013-1-9,59.4,45.4,31.2,49.3,38.9,29.4,94,79,42,30.45,30.36,20,2,22,0.00
2013-1-10,59.9,52.1,40.8,38.0,32.7,29.2,69,48,34,30.57,30.44,18,2,18,0.00
2013-1-11,47.8,42.8,40.2,41.2,37.5,33.5,98,83,58,30.45,30.16,10,1,11,0.05
2013-1-12,73.1,56.3,39.4,60.3,51.9,38.9,99,87,63,30.19,30.10,8,1,8,0.01
2013-1-13,71.0,61.6,55.9,62.4,58.0,55.3,99,88,70,30.10,29.98,11,1,12,0.00
2013-1-14,64.3,56.3,47.4,59.3,54.5,46.3,99,94,81,30.23,30.00,11,1,12,0.64
2013-1-15,47.4,41.7,37.9,46.3,41.1,37.4,98,98,95,30.29,30.12,10,2,10,1.07
2013-1-16,49.4,41.6,37.3,47.1,40.7,36.9,99,97,82,30.14,29.96,14,1,14,0.37
2013-1-17,48.3,40.2,33.8,45.1,37.4,32.6,98,90,77,30.18,30.00,15,3,16,1.16
2013-1-18,41.6,35.0,27.0,32.6,23.9,17.8,89,65,41,30.54,30.18,26,4,26,0.02
2013-1-19,52.7,35.1,23.2,35.0,27.2,21.7,95,75,30,30.49,30.12,11,1,13,0.00
2013-1-20,55.1,46.4,32.9,33.8,27.9,19.3,83,49,33,30.12,29.98,24,7,24,0.00
2013-1-21,52.1,40.3,30.2,27.7,19.1,5.7,71,44,26,30.10,29.87,27,5,31,0.00
2013-1-22,31.5,23.7,19.4,9.0,-0.1,-3.4,42,35,27,30.32,30.00,29,6,29,0.00
2013-1-23,32.9,25.9,18.2,18.3,6.2,-3.8,61,43,25,30.39,30.07,18,4,18,0.00
2013-1-24,33.3,26.4,18.7,20.7,7.9,0.2,63,46,30,30.57,30.03,45,7,45,0.00
2013-1-25,23.6,20.0,16.1,20.6,14.5,4.7,92,80,54,30.55,30.11,13,1,13,0.00
2013-1-26,41.2,31.3,19.6,27.0,22.2,17.6,95,70,54,30.46,30.11,22,4,22,0.04
2013-1-27,34.4,29.2,20.8,26.5,22.4,16.7,88,76,68,30.64,30.46,11,1,12,0.00
2013-1-28,55.0,40.6,31.2,43.7,36.5,26.0,97,86,64,30.50,30.19,6,1,6,0.14
2013-1-29,72.9,55.4,39.8,52.6,46.4,38.1,96,74,46,30.20,30.00,12,2,12,0.00
2013-1-30,65.9,60.5,52.2,62.5,58.3,49.2,99,92,83,30.01,29.32,23,4,23,3.19
2013-1-31,56.1,38.7,31.2,49.4,24.2,17.2,90,56,43,29.96,29.36,32,8,37,0.02
2013-2-1,39.4,25.6,19.8,31.8,10.7,2.4,91,54,39,30.43,29.82,30,6,31,0.00
2013-2-2,34.0,25.3,14.7,28.5,16.8,5.8,87,71,45,30.42,30.05,13,2,13,0.00
2013-2-3,40.6,34.9,30.8,28.9,24.0,18.1,85,65,53,30.05,29.87,28,7,33,0.00
2013-2-4,40.2,31.8,24.1,25.4,19.3,13.6,72,60,49,30.16,29.97,21,3,21,0.00
2013-2-5,52.3,43.0,31.9,37.7,32.2,23.9,84,66,53,29.98,29.91,20,4,20,0.00
2013-2-6,54.2,45.0,36.1,36.0,29.0,25.4,85,55,35,30.33,29.96,20,3,20,0.00
2013-2-7,39.3,36.5,33.3,32.4,29.8,25.7,95,77,66,30.40,30.14,12,2,15,0.00
2013-2-8,52.1,38.1,32.7,41.7,32.5,24.8,98,82,58,30.14,29.84,36,6,36,0.49
2013-2-9,48.8,37.9,31.1,25.9,18.0,13.6,66,46,27,30.39,30.07,39,8,39,0.00
2013-2-10,47.2,37.4,27.8,35.1,21.2,14.7,91,53,37,30.51,30.24,13,2,14,0.06
2013-2-11,62.2,48.7,36.8,51.0,40.0,24.0,98,76,32,30.24,29.88,29,4,31,0.04
2013-2-12,58.1,49.2,42.1,28.5,24.0,18.2,51,38,24,30.05,29.91,32,6,32,0.00
2013-2-13,45.4,41.6,38.9,41.9,36.5,26.0,98,83,47,29.95,29.64,25,2,25,0.15
2013-2-14,51.6,41.2,33.7,32.1,28.0,24.8,79,60,39,30.08,29.84,15,3,17,0.00
2013-2-15,58.8,43.2,29.6,39.7,32.3,26.1,93,68,35,30.10,29.92,21,3,23,0.00
2013-2-16,39.4,34.9,27.7,29.8,21.1,13.1,69,57,45,30.02,29.86,25,5,25,0.00
2013-2-17,30.3,25.0,20.3,18.1,6.7,2.9,71,46,32,30.29,29.94,28,8,28,0.00
2013-2-18,51.0,35.0,15.4,24.9,16.7,6.3,78,49,30,30.42,30.19,14,2,15,0.00
2013-2-19,53.7,42.0,34.8,41.3,27.0,14.6,88,58,29,30.20,29.80,29,5,29,0.01
2013-2-20,44.1,36.0,30.8,17.1,12.4,8.9,49,38,25,30.19,29.96,28,8,28,0.00
2013-2-21,50.1,38.5,26.6,19.6,16.0,12.8,57,41,26,30.31,30.15,17,3,17,0.00
2013-2-22,40.6,34.4,30.5,30.3,25.8,18.4,82,71,45,30.37,30.17,15,2,15,0.01
2013-2-23,52.7,41.4,33.5,43.3,36.5,29.8,94,83,67,30.19,29.82,8,1,8,0.02
2013-2-24,54.8,46.1,38.8,40.9,29.5,21.4,97,56,29,30.09,29.82,24,5,24,0.00
2013-2-25,41.6,35.1,28.5,25.2,22.7,20.6,80,61,47,30.24,30.09,11,2,11,0.00
2013-2-26,41.0,36.0,30.6,40.2,31.1,21.0,98,83,61,30.22,29.65,22,3,22,0.87
2013-2-27,49.9,45.0,38.6,40.8,34.7,32.0,99,68,53,29.78,29.61,24,5,24,0.00
2013-2-28,41.4,38.7,36.6,33.8,27.5,24.3,75,64,53,29.86,29.69,24,5,24,0.00
2013-3-1,40.1,38.2,36.3,28.5,25.7,22.6,69,61,54,29.94,29.82,19,5,19,0.00
2013-3-2,36.3,33.8,31.0,24.1,20.8,17.9,63,59,54,29.96,29.88,21,6,21,0.00
2013-3-3,35.8,31.0,27.6,19.8,17.3,12.1,64,57,48,30.02,29.91,30,7,30,0.00
2013-3-4,49.4,35.2,26.4,15.6,11.9,7.8,55,40,21,30.14,30.01,23,5,23,0.00
2013-3-5,50.5,39.5,33.9,35.6,29.8,14.4,96,70,41,30.11,29.65,17,2,18,0.64
2013-3-6,40.7,36.2,32.5,33.5,29.9,27.5,97,78,66,30.11,29.62,33,9,35,0.27
2013-3-7,43.7,39.1,37.3,29.3,27.8,24.6,71,64,52,30.28,30.10,28,7,28,0.00
2013-3-8,50.4,42.1,36.9,27.6,25.3,22.0,65,52,37,30.36,30.23,25,7,29,0.00
2013-3-9,61.1,47.6,33.5,33.6,28.2,24.9,71,49,30,30.39,30.26,10,2,14,0.00
2013-3-10,63.5,50.7,34.0,36.2,30.6,23.4,77,47,33,30.33,30.19,14,2,15,0.00
2013-3-11,59.0,50.4,42.5,52.2,36.9,26.2,80,61,43,30.22,29.88,13,2,13,0.00
2013-3-12,58.6,51.8,41.2,54.5,43.1,30.3,98,74,49,30.00,29.72,20,5,22,0.81
2013-3-13,45.8,39.8,31.9,30.8,26.2,16.7,80,58,38,30.18,29.96,32,6,32,0.00
2013-3-14,47.0,37.8,28.8,20.5,16.9,14.5,63,43,29,30.28,30.15,26,6,26,0.00
2013-3-15,63.1,47.6,30.6,37.0,26.8,15.1,61,45,35,30.19,29.86,18,4,19,0.00
2013-3-16,75.7,58.2,42.7,53.8,44.9,34.3,95,64,37,29.87,29.57,26,4,26,0.05
2013-3-17,60.4,43.3,35.7,50.5,40.7,34.7,97,91,69,30.23,29.83,12,2,12,0.56
2013-3-18,35.7,33.3,32.0,34.9,32.4,31.0,98,97,96,30.26,29.93,16,2,16,0.25
2013-3-19,59.1,46.1,32.9,42.2,25.1,2.2,99,54,15,30.06,29.82,33,8,35,0.00
2013-3-20,53.4,43.1,35.4,25.9,12.8,3.1,54,30,18,30.08,29.79,24,5,26,0.00
2013-3-21,41.1,31.4,26.3,27.1,14.4,8.6,67,49,38,30.03,29.79,25,7,25,0.00
2013-3-22,48.7,34.4,24.3,18.4,13.5,10.1,56,43,25,30.10,29.98,18,5,19,0.00
2013-3-23,56.0,42.8,31.3,27.9,22.3,16.3,76,47,27,30.08,29.92,14,2,14,0.00
2013-3-24,45.2,36.1,31.2,32.6,28.3,21.4,96,77,41,29.97,29.61,18,3,23,0.11
2013-3-25,42.0,35.2,29.6,34.0,28.3,23.7,98,78,50,29.80,29.57,25,4,25,0.60
2013-3-26,43.6,39.8,36.2,28.7,27.1,24.6,67,60,48,30.14,29.79,21,6,25,0.00
2013-3-27,43.5,38.5,33.7,27.7,25.2,22.7,71,59,47,30.25,30.14,23,6,25,0.00
2013-3-28,50.0,42.0,36.8,28.1,24.6,21.7,67,51,37,30.30,30.22,25,6,25,0.00
2013-3-29,57.1,44.7,31.2,30.8,25.8,20.5,79,51,26,30.34,30.18,18,3,20,0.00
2013-3-30,62.5,48.7,32.2,35.9,29.8,26.2,83,51,29,30.27,30.08,13,2,14,0.00
2013-3-31,60.0,50.7,42.4,52.8,42.6,29.8,97,76,46,30.09,29.78,13,2,15,0.31
2013-4-1,61.8,51.8,42.5,45.0,39.0,28.4,83,62,47,30.03,29.83,28,6,28,0.00
2013-4-2,52.2,43.1,33.1,28.9,19.4,10.5,67,41,19,30.19,30.02,20,4,20,0.00
2013-4-3,55.7,44.1,31.7,20.8,14.6,8.9,56,32,17,30.36,30.19,21,4,21,0.00
2013-4-4,42.5,36.5,33.1,32.7,22.5,10.6,97,61,28,30.42,30.03,13,2,14,0.29
2013-4-5,63.2,48.3,33.4,42.9,34.9,28.8,99,66,29,30.06,29.92,18,3,18,0.48
2013-4-6,61.7,50.8,37.4,36.3,30.6,24.7,78,48,29,30.28,30.05,13,2,15,0.00
2013-4-7,70.6,55.4,39.5,46.5,39.4,25.7,83,57,39,30.25,30.04,19,3,20,0.00
2013-4-8,79.4,63.8,46.7,52.6,47.4,42.0,86,58,33,30.12,29.98,22,3,22,0.00
2013-4-9,84.3,72.0,57.0,55.8,52.5,49.2,78,52,33,30.13,29.98,15,3,15,0.00
2013-4-10,89.3,77.0,62.0,60.1,55.3,48.4,75,49,25,30.04,29.84,18,3,18,0.00
2013-4-11,81.0,72.2,60.7,60.9,58.0,54.8,83,62,44,29.89,29.70,19,3,22,0.00
2013-4-12,73.1,65.6,60.0,65.3,55.5,37.2,98,74,32,29.76,29.61,20,4,22,0.83
2013-4-13,72.8,61.8,50.3,42.3,34.5,27.8,63,38,21,29.99,29.75,24,5,26,0.00
2013-4-14,76.2,64.1,47.9,44.2,37.4,31.2,61,39,25,30.10,29.98,19,3,19,0.00
2013-4-15,65.3,65.3,65.3,45.7,45.7,45.7,49,49,49,30.05,30.05,3,3,6,0.00
2013-4-19,69.1,61.4,51.4,65.8,55.2,39.0,95,80,62,29.83,29.62,24,5,24,0.59
2013-4-20,59.9,51.4,42.7,39.4,30.1,25.0,66,45,28,30.32,29.83,23,6,23,0.05
2013-4-21,60.4,48.6,38.4,36.6,32.3,25.5,71,54,38,30.54,30.31,15,2,16,0.00
2013-4-22,61.6,49.5,33.9,37.8,31.7,23.4,89,54,25,30.52,30.31,16,3,19,0.00
2013-4-23,66.5,56.2,47.1,49.8,44.2,37.6,79,65,50,30.34,30.10,12,2,13,0.00
2013-4-24,74.1,63.3,48.0,57.5,52.5,46.4,97,69,48,30.13,29.89,22,4,25,0.00
2013-4-25,66.5,54.5,42.1,47.3,31.6,15.4,72,46,14,30.33,30.04,23,4,23,0.00
2013-4-26,68.0,55.2,39.2,42.8,35.9,26.3,81,51,30,30.46,30.32,13,2,14,0.00
2013-4-27,67.3,58.8,51.7,52.3,45.0,37.9,84,61,45,30.38,30.26,10,1,10,0.00
2013-4-28,56.0,53.4,51.2,54.2,51.6,49.5,96,94,83,30.26,30.06,18,2,18,0.11
2013-4-29,69.0,57.1,50.5,60.0,53.8,49.8,98,89,68,30.12,29.99,11,1,11,0.03
2013-4-30,68.8,60.2,56.0,59.4,56.2,54.4,98,87,69,30.23,30.04,14,1,14,0.03
2013-5-1,72.3,60.7,54.8,55.7,52.3,43.0,96,76,40,30.37,30.23,15,2,15,0.02
2013-5-2,70.4,60.7,53.6,52.1,45.5,39.4,73,58,43,30.37,30.26,13,2,13,0.01
2013-5-3,66.6,56.6,47.5,52.1,47.8,40.4,92,74,53,30.33,30.21,16,2,16,0.01
2013-5-4,62.9,53.4,45.9,50.0,45.2,41.2,85,74,54,30.26,30.13,23,3,23,0.00
2013-5-5,57.3,52.7,45.2,51.1,44.8,33.4,92,75,55,30.17,30.03,24,4,24,0.04
2013-5-6,57.2,54.2,51.3,56.6,53.0,49.8,98,96,86,30.08,29.88,32,5,32,0.53
2013-5-7,64.1,55.7,49.4,56.6,54.2,48.7,99,95,68,29.95,29.87,17,1,17,0.86
2013-5-8,59.1,53.7,49.4,56.1,52.7,48.9,99,97,87,30.02,29.94,6,0,6,0.49
2013-5-9,79.1,64.8,47.9,60.0,53.4,46.9,99,71,38,30.06,29.98,14,2,15,0.16
2013-5-10,80.8,66.5,54.5,63.6,57.8,52.8,96,76,47,30.05,29.90,21,2,24,0.02
2013-5-11,74.9,64.9,59.9,65.2,61.3,58.8,99,89,64,29.93,29.75,29,1,29,0.16
2013-5-12,63.0,57.2,47.4,58.8,40.5,30.8,95,56,31,30.06,29.80,19,4,19,0.05
2013-5-13,61.9,50.9,38.1,43.0,34.0,27.7,92,55,29,30.21,30.06,20,4,20,0.01
2013-5-14,68.8,53.1,35.3,47.6,39.5,31.8,95,64,28,30.25,30.04,13,2,13,0.00
2013-5-15,91.7,69.7,49.3,65.7,53.8,45.8,92,62,29,30.05,29.83,18,2,18,0.00
2013-5-16,83.2,76.8,68.5,61.0,57.2,51.9,66,51,41,29.96,29.86,27,3,27,0.00
2013-5-17,83.5,70.2,60.9,67.3,60.6,55.9,92,73,47,30.11,29.96,12,1,12,0.02
2013-5-18,70.1,65.0,61.9,65.4,62.8,60.5,98,93,81,30.17,30.08,11,1,11,0.17
2013-5-19,68.5,64.5,62.5,67.9,64.1,61.9,99,99,97,30.15,30.05,9,1,9,0.91
2013-5-20,79.3,69.6,65.4,71.5,67.0,65.1,100,92,69,30.11,29.99,10,0,10,0.06
2013-5-21,87.7,74.6,65.7,72.5,67.7,64.8,100,81,51,30.02,29.88,9,1,9,0.00
2013-5-22,82.4,70.3,61.3,73.0,66.3,60.0,99,88,64,29.96,29.84,13,2,16,0.10
2013-5-23,77.1,68.3,62.0,70.9,65.5,61.4,99,91,73,29.92,29.76,22,1,22,0.01
2013-5-24,63.9,58.3,52.0,61.7,46.5,34.7,98,67,40,30.19,29.80,32,7,32,0.34
2013-5-25,69.6,57.6,45.8,40.4,34.2,27.4,68,44,21,30.28,30.17,20,4,21,0.00
2013-5-26,75.2,62.2,50.3,48.0,40.7,34.0,81,48,27,30.27,30.15,13,2,14,0.00
2013-5-27,76.1,62.3,46.0,59.1,48.4,34.9,89,62,41,30.29,30.15,9,1,9,0.00
2013-5-28,82.8,70.7,58.1,67.8,60.7,54.3,90,72,50,30.20,30.08,18,2,18,0.00
2013-5-29,85.8,74.3,60.6,68.6,63.8,59.2,97,72,45,30.18,30.09,13,2,14,0.00
2013-5-30,85.3,73.6,59.8,70.1,63.8,57.9,95,73,48,30.22,30.13,14,2,14,0.00
2013-5-31,84.3,73.4,59.7,69.0,63.8,58.1,96,74,52,30.18,30.05,16,2,16,0.00
2013-6-1,85.3,74.6,61.6,71.7,64.6,59.8,95,73,52,30.08,29.95,18,2,20,0.00
2013-6-2,76.6,69.5,65.8,71.1,66.5,62.0,98,90,77,29.98,29.88,14,0,14,0.64
2013-6-3,81.6,71.3,64.5,70.0,65.0,59.4,99,82,56,29.96,29.84,14,2,17,0.32
2013-6-4,80.0,71.0,57.5,65.1,61.5,55.5,96,73,47,30.11,29.96,13,2,13,0.00
2013-6-5,73.5,67.0,59.8,66.1,61.6,53.0,96,83,66,30.15,30.03,12,1,12,0.01
2013-6-6,66.8,63.5,60.1,66.2,62.8,59.2,99,97,90,30.03,29.82,8,0,11,2.23
2013-6-7,76.2,68.9,64.6,71.4,66.9,61.4,100,94,78,29.84,29.61,10,1,10,0.22
2013-6-8,82.3,70.2,61.8,70.1,62.4,58.2,97,78,49,30.09,29.80,9,1,9,0.08
2013-6-9,84.5,73.8,63.6,72.1,67.2,62.4,98,82,55,30.15,30.03,17,1,17,0.16
2013-6-10,79.0,71.0,65.6,73.3,69.0,64.7,99,94,76,30.06,29.82,20,2,20,0.49
2013-6-11,81.8,72.8,64.1,67.7,64.7,62.7,99,77,55,29.93,29.85,15,2,19,0.18
2013-6-12,92.0,77.7,64.3,75.8,69.0,62.5,96,76,53,29.94,29.82,10,1,13,0.00
2013-6-13,89.7,75.9,66.1,73.7,67.1,56.4,96,75,52,29.83,29.55,21,3,35,0.29
2013-6-14,77.7,69.4,61.8,62.2,56.2,52.1,86,64,47,30.02,29.73,18,4,19,0.00
2013-6-15,83.3,70.1,56.0,64.9,58.7,54.2,95,70,40,30.12,30.01,12,1,12,0.00
2013-6-16,85.5,72.8,59.0,71.2,64.6,57.6,97,77,55,30.06,29.95,13,1,14,0.01
2013-6-17,85.9,74.1,66.6,73.2,68.7,65.7,98,84,61,30.01,29.89,14,1,14,0.12
2013-6-18,75.2,70.3,64.6,71.4,67.7,62.7,99,92,77,29.93,29.79,16,1,16,0.61
2013-6-19,80.7,69.8,59.6,68.8,64.7,58.8,99,85,59,30.13,29.90,12,1,13,0.44
2013-6-20,77.3,69.8,65.3,68.9,65.8,63.1,99,88,65,30.25,30.13,11,1,11,0.01
2013-6-21,82.9,70.8,59.0,69.2,62.1,55.4,95,75,56,30.28,30.19,9,1,9,0.00
2013-6-22,86.3,71.8,58.0,70.8,64.1,55.4,94,78,54,30.26,30.11,11,1,14,0.00
2013-6-23,86.6,75.9,66.5,73.4,69.2,65.5,98,81,58,30.19,30.08,9,1,10,0.00
2013-6-24,88.8,75.6,66.5,74.4,69.5,65.7,98,82,55,30.17,30.04,10,1,12,0.00
2013-6-25,88.4,76.9,66.0,74.9,70.1,65.2,99,81,55,30.08,29.95,9,1,10,0.00
2013-6-26,89.9,73.7,66.9,76.8,69.1,65.2,99,87,59,29.97,29.86,36,1,37,0.95
2013-6-27,83.2,72.2,65.8,73.4,68.7,65.5,100,90,67,29.89,29.69,12,1,12,0.02
2013-6-28,88.6,78.8,67.7,73.6,68.0,60.5,96,71,45,29.72,29.50,16,2,18,0.00
2013-6-29,82.8,73.9,65.0,71.9,66.6,62.6,98,79,56,29.70,29.55,15,1,24,0.75
2013-6-30,84.5,73.8,67.6,74.2,70.0,67.3,100,89,63,29.84,29.68,15,1,16,0.07
2013-7-1,80.5,73.7,68.3,72.7,69.7,67.7,99,88,71,29.95,29.81,12,2,12,0.07
2013-7-2,75.8,72.0,70.1,72.6,70.4,68.8,98,95,87,30.16,29.95,14,1,14,1.11
2013-7-3,78.2,72.8,69.8,74.6,71.7,69.5,100,96,85,30.23,30.11,17,0,17,1.91
2013-7-4,83.3,75.0,70.3,76.5,72.5,69.4,99,92,70,30.25,30.16,17,1,22,1.28
2013-7-5,83.5,75.9,70.0,75.8,72.1,69.7,100,89,71,30.25,30.15,12,1,13,0.01
2013-7-6,84.1,75.8,70.4,74.4,71.1,68.6,99,87,62,30.22,30.09,13,2,13,0.02
2013-7-7,83.3,73.9,69.0,76.1,71.0,68.3,99,91,73,30.15,30.05,14,1,16,0.37
2013-7-8,84.1,74.4,67.5,75.4,69.3,66.9,99,85,58,30.16,30.07,10,1,11,0.03
2013-7-9,87.7,77.4,69.3,76.6,71.5,68.2,98,83,57,30.13,30.02,8,1,8,0.00
2013-7-10,86.8,74.8,69.7,79.8,72.1,68.3,99,92,70,30.05,29.92,15,1,17,1.07
2013-7-11,84.9,74.1,68.2,76.2,71.5,65.8,100,92,68,29.94,29.86,10,0,11,0.35
2013-7-12,78.4,70.6,66.1,68.8,66.0,64.6,98,86,68,30.05,29.87,15,3,16,0.27
2013-7-13,80.2,72.2,67.2,73.0,69.0,64.8,98,90,75,30.20,30.04,11,1,14,0.76
2013-7-14,85.7,76.6,70.3,74.7,71.5,69.5,99,85,60,30.32,30.20,11,2,11,0.01
2013-7-15,89.6,78.5,70.2,76.1,72.0,68.7,98,82,59,30.32,30.23,6,1,7,0.00
2013-7-16,94.2,79.0,69.4,78.9,71.0,68.2,97,79,47,30.27,30.17,15,2,15,0.00
2013-7-17,94.1,80.4,72.0,79.4,73.8,70.2,95,81,53,30.23,30.11,17,1,17,0.04
2013-7-18,93.5,80.9,70.8,80.9,74.6,69.9,98,82,55,30.15,30.02,6,0,6,0.00
2013-7-19,90.6,79.7,70.6,78.1,73.6,69.6,98,83,57,30.06,29.92,15,1,15,0.00
2013-7-20,90.3,78.8,70.6,77.0,72.7,69.6,98,83,57,29.96,29.85,12,1,12,0.00
2013-7-21,86.5,76.2,69.1,76.7,72.4,67.2,99,88,61,29.97,29.89,29,1,29,0.54
2013-7-22,86.0,76.6,71.0,76.1,72.9,70.3,99,89,65,29.94,29.77,15,1,15,0.12
2013-7-23,87.7,78.3,71.2,74.4,70.4,67.7,97,78,53,29.78,29.69,10,1,12,0.00
2013-7-24,87.8,77.8,69.8,71.8,68.1,63.3,93,74,47,29.88,29.71,10,2,12,0.00
2013-7-25,82.9,72.8,65.9,68.8,64.2,58.9,93,75,57,30.04,29.86,9,1,9,0.00
2013-7-26,81.6,71.8,62.1,70.2,65.8,60.7,96,82,66,30.10,30.00,12,1,12,0.00
2013-7-27,72.8,69.7,67.9,70.0,68.1,66.3,98,95,86,30.04,29.92,9,0,10,0.33
2013-7-28,82.8,73.5,66.3,71.2,68.2,65.2,99,85,60,29.99,29.89,9,1,11,0.00
2013-7-29,81.0,70.5,59.8,66.5,59.3,54.7,93,70,42,30.19,29.99,11,2,15,0.00
2013-7-30,81.6,69.5,55.9,67.6,60.8,54.2,96,76,48,30.24,30.15,6,1,8,0.00
2013-7-31,76.2,68.9,64.3,70.1,65.6,62.5,98,90,73,30.16,30.00,5,0,5,0.02
2013-8-1,86.1,72.9,65.6,73.6,67.0,63.7,99,83,55,30.00,29.84,14,1,14,0.03
2013-8-2,84.0,73.4,63.1,69.2,63.5,59.6,95,73,45,30.02,29.91,11,1,11,0.00
2013-8-3,87.0,72.4,61.8,72.8,65.7,60.1,96,80,51,30.00,29.91,8,0,8,0.00
2013-8-4,82.0,73.7,66.4,67.0,62.0,55.5,94,69,42,30.05,29.91,18,3,18,0.00
2013-8-5,79.7,69.0,58.4,67.4,61.4,56.2,95,78,54,30.11,30.00,10,1,10,0.00
2013-8-6,81.9,73.2,65.9,72.6,68.3,63.9,95,85,68,30.02,29.96,11,1,13,0.03
2013-8-7,77.6,72.8,68.9,74.0,70.9,68.0,98,94,85,30.07,30.01,9,0,9,0.01
2013-8-8,83.0,73.7,69.6,77.1,71.9,69.0,99,94,78,30.04,29.98,11,1,11,0.97
2013-8-9,86.6,77.0,69.5,78.1,73.3,69.2,100,89,66,30.00,29.93,12,1,16,0.01
2013-8-10,88.8,78.9,71.4,77.7,72.9,70.4,99,83,59,30.06,29.98,11,1,11,0.00
2013-8-11,88.8,76.1,70.3,75.5,72.2,69.7,99,89,58,30.09,29.99,19,1,20,1.06
2013-8-12,87.7,77.4,69.3,77.2,71.3,69.0,100,83,58,30.04,29.92,12,1,12,0.06
2013-8-13,80.3,72.9,68.9,74.9,70.0,64.7,99,91,75,29.94,29.78,18,1,18,0.16
2013-8-14,75.8,69.4,62.9,65.1,56.5,49.8,84,64,44,30.12,29.85,13,3,16,0.01
2013-8-15,76.9,64.5,52.2,61.4,55.5,51.1,97,74,49,30.19,30.10,10,1,10,0.00
2013-8-16,74.2,63.4,51.6,62.0,57.1,50.8,98,81,57,30.21,30.13,8,1,8,0.00
2013-8-17,71.1,62.7,55.1,63.0,59.2,54.3,99,89,65,30.24,30.18,10,1,10,0.25
2013-8-18,72.8,66.0,62.4,69.7,64.4,61.8,99,95,80,30.24,30.16,8,0,10,1.08
2013-8-19,75.8,68.2,63.8,71.1,66.5,63.2,99,95,84,30.21,30.08,6,0,6,0.10
2013-8-20,82.5,72.3,64.1,74.3,69.2,63.8,100,91,71,30.19,30.10,8,0,8,0.00
2013-8-21,81.0,73.7,66.7,75.1,70.9,66.2,100,91,73,30.21,30.08,8,1,9,0.06
2013-8-22,86.4,75.4,67.0,75.1,68.9,64.5,98,81,60,30.12,29.98,10,2,11,0.03
2013-8-23,83.8,72.3,63.4,72.9,68.1,62.2,96,87,63,30.12,29.94,22,1,22,0.01
2013-8-24,82.8,69.4,57.6,65.5,60.7,57.0,99,77,46,30.32,30.12,10,1,10,0.00
2013-8-25,83.0,67.8,58.0,66.5,60.3,56.9,98,79,45,30.41,30.28,8,1,8,0.00
2013-8-26,86.8,70.3,55.4,68.9,61.7,54.6,99,77,40,30.33,30.08,10,1,10,0.00
2013-8-27,86.7,75.3,63.0,74.5,68.8,61.8,98,81,57,30.09,29.93,14,1,15,0.00
2013-8-28,80.9,75.4,72.2,77.0,72.2,68.9,98,90,81,29.98,29.82,10,1,10,0.14
2013-8-29,90.5,77.8,70.2,76.9,71.8,68.4,96,82,52,30.01,29.82,16,2,18,0.00
2013-8-30,84.5,74.0,67.7,73.4,70.0,67.1,99,88,65,30.05,29.91,9,1,9,0.00
2013-8-31,88.2,73.5,65.8,76.2,69.6,63.5,99,89,59,29.93,29.81,22,1,24,0.05
2013-9-1,85.5,73.6,64.1,77.3,70.0,63.8,100,89,67,29.88,29.77,13,1,13,0.24
2013-9-2,87.3,76.3,66.9,75.0,70.1,65.8,98,82,58,29.87,29.76,8,1,10,0.00
2013-9-3,87.0,76.6,66.8,71.9,66.7,59.3,95,73,49,29.96,29.77,16,2,16,0.00
2013-9-4,81.8,69.3,57.6,67.8,60.9,55.9,96,76,48,30.10,29.96,7,1,8,0.00
2013-9-5,85.2,71.5,57.6,64.3,60.8,56.5,98,72,41,30.12,30.03,14,2,15,0.00
2013-9-6,77.9,66.7,59.8,62.9,59.1,55.5,97,78,50,30.22,30.11,8,1,8,0.00
2013-9-7,78.7,66.4,53.9,68.6,61.2,52.8,98,84,61,30.15,29.97,9,1,11,0.00
2013-9-8,86.9,71.2,59.1,73.1,65.5,58.2,98,84,53,29.99,29.90,10,1,12,0.00
2013-9-9,80.3,70.9,65.1,69.9,66.5,64.0,98,87,67,30.17,29.99,8,1,8,0.00
2013-9-10,89.5,75.1,65.3,77.6,70.3,64.7,99,86,57,30.22,30.12,7,0,8,0.00
2013-9-11,90.8,75.7,66.6,75.0,70.6,66.0,99,86,54,30.17,30.03,10,1,11,0.11
2013-9-12,89.0,77.5,68.3,75.0,69.4,64.4,98,77,51,30.04,29.79,11,2,15,0.00
2013-9-13,78.7,70.5,59.1,65.5,55.0,47.2,93,60,39,29.93,29.76,21,5,21,0.00
2013-9-14,73.9,60.0,50.3,56.0,50.6,46.7,94,73,46,30.16,29.93,11,2,13,0.00
2013-9-15,75.5,61.6,46.7,63.1,55.2,45.5,97,81,58,30.26,30.11,10,1,11,0.00
2013-9-16,75.1,64.6,56.4,65.3,58.8,52.4,99,83,61,30.24,30.10,16,2,17,0.00
2013-9-17,72.9,58.3,48.0,56.8,52.4,47.2,98,82,53,30.38,30.24,11,1,11,0.00
2013-9-18,66.9,57.0,48.3,58.5,52.6,46.7,96,86,68,30.35,30.20,9,1,9,0.00
2013-9-19,71.8,64.4,59.3,65.9,61.1,57.3,96,89,77,30.21,30.08,6,0,6,0.00
2013-9-20,68.7,65.1,62.0,66.8,63.9,61.2,99,96,88,30.09,29.95,6,0,7,0.34
2013-9-21,67.9,64.5,59.4,67.9,64.3,58.4,100,99,95,29.96,29.71,10,1,10,0.61
2013-9-22,74.4,63.5,54.8,61.4,55.9,51.9,99,78,51,29.94,29.76,16,3,18,0.01
2013-9-23,72.2,59.8,53.3,59.4,55.1,51.7,98,85,61,30.09,29.93,8,1,8,0.00
2013-9-24,74.2,62.4,55.1,62.8,57.1,51.2,95,83,64,30.12,29.94,9,1,9,0.00
2013-9-25,70.6,61.8,53.8,62.9,58.8,53.2,99,90,73,29.97,29.89,8,0,8,0.02
2013-9-26,77.8,64.4,56.1,64.4,58.2,51.8,100,83,48,30.07,29.92,8,1,8,0.00
2013-9-27,75.4,61.2,49.6,60.4,54.6,48.9,99,81,49,30.23,30.07,11,1,11,0.00
2013-9-28,68.3,60.4,53.1,58.1,55.7,51.6,96,85,64,30.29,30.21,8,1,11,0.00
2013-9-29,72.5,58.3,48.6,57.4,52.7,48.1,99,83,54,30.22,30.07,7,1,8,0.00
2013-9-30,77.1,61.6,50.6,61.9,55.5,49.9,99,82,52,30.11,29.99,9,1,9,0.00
2013-10-1,79.9,64.8,54.1,65.1,58.7,53.4,99,82,53,30.13,30.03,14,1,14,0.00
2013-10-2,83.0,67.3,54.9,65.5,59.8,53.3,98,79,50,30.14,30.04,12,1,14,0.00
2013-10-3,81.8,67.1,56.6,67.3,61.6,56.1,99,84,54,30.14,30.05,9,0,9,0.00
2013-10-4,86.2,70.0,58.1,68.6,63.2,57.8,99,81,48,30.13,30.04,13,1,14,0.01
2013-10-5,87.0,72.2,60.0,69.2,64.6,59.4,99,80,49,30.12,30.01,7,1,12,0.00
2013-10-6,82.0,70.2,59.5,68.9,64.0,59.0,99,82,56,30.04,29.90,20,2,20,0.00
2013-10-7,70.8,64.7,51.7,69.0,59.9,47.5,99,85,62,30.08,29.76,17,2,17,1.97
2013-10-8,68.6,58.1,50.6,50.0,46.8,44.5,87,67,46,30.28,30.06,13,2,13,0.00
2013-10-9,66.7,56.1,48.2,51.0,47.9,45.4,96,75,47,30.30,30.19,16,3,21,0.00
2013-10-10,67.0,58.7,51.6,59.4,54.2,46.4,94,85,75,30.19,29.99,25,4,25,0.25
2013-10-11,73.1,64.6,58.7,62.9,58.4,55.5,92,81,66,30.00,29.92,13,2,14,0.00
2013-10-12,68.4,63.8,60.5,63.4,60.4,57.3,97,89,80,30.13,29.98,16,2,17,0.05
2013-10-13,68.9,63.5,59.5,62.8,60.5,58.6,98,90,79,30.27,30.12,9,1,10,0.12
2013-10-14,71.3,61.7,57.4,61.9,58.9,55.6,99,91,69,30.30,30.19,7,0,8,0.16
2013-10-15,72.4,58.7,48.4,58.9,53.5,47.8,99,85,44,30.25,30.10,7,0,7,0.01
2013-10-16,70.8,61.7,53.3,61.7,57.5,52.8,99,87,69,30.11,29.95,7,1,8,0.00
2013-10-17,66.3,62.1,58.1,64.5,60.4,53.2,99,94,78,29.95,29.79,14,1,14,0.07
2013-10-18,65.8,56.6,48.5,53.2,46.1,41.6,92,69,48,30.06,29.91,17,2,18,0.00
2013-10-19,59.8,53.3,46.8,56.1,50.3,45.7,99,90,71,30.01,29.83,12,0,13,0.00
2013-10-20,64.0,51.5,40.1,46.3,38.7,35.6,88,63,39,30.14,29.95,16,2,19,0.00
2013-10-21,66.4,50.5,35.5,51.7,44.6,34.7,98,82,55,30.19,30.00,10,1,10,0.00
2013-10-22,68.4,56.2,47.4,52.1,48.9,46.6,98,78,51,30.00,29.81,13,2,15,0.00
2013-10-23,58.9,50.2,42.6,50.8,43.6,31.2,99,80,50,30.01,29.71,24,4,24,0.13
2013-10-24,49.4,43.3,34.8,36.2,32.6,30.7,85,66,52,30.22,30.01,17,2,18,0.00
2013-10-25,50.0,41.3,33.7,31.5,29.0,26.2,88,63,43,30.39,30.21,24,4,24,0.00
2013-10-26,57.9,42.9,27.2,39.6,30.4,25.5,94,65,32,30.38,30.05,14,1,14,0.00
2013-10-27,66.7,52.8,40.2,43.2,38.9,31.6,87,61,38,30.13,30.03,16,2,19,0.00
2013-10-28,66.3,51.2,37.4,54.1,46.0,36.3,97,84,54,30.28,30.13,10,0,10,0.00
2013-10-29,70.8,59.2,52.1,55.6,52.8,50.7,97,81,55,30.37,30.26,7,1,7,0.00
2013-10-30,71.7,60.3,53.5,61.3,55.6,50.4,96,85,68,30.30,30.14,9,0,11,0.06
2013-10-31,68.5,63.0,58.0,60.7,58.2,57.0,97,85,70,30.17,29.80,15,2,16,0.00
2013-11-1,76.3,67.6,58.3,63.0,58.5,46.1,95,74,41,29.81,29.60,23,3,23,0.07
2013-11-2,64.6,58.7,51.2,47.8,40.5,32.8,74,52,35,29.96,29.66,19,4,22,0.00
2013-11-3,58.0,49.6,38.9,39.3,35.6,32.9,81,59,42,30.42,29.95,20,4,20,0.00
2013-11-4,49.4,41.5,33.2,33.4,29.7,27.5,87,64,45,30.62,30.41,10,1,12,0.00
2013-11-5,52.7,44.5,33.5,44.4,36.0,27.3,91,73,54,30.65,30.49,6,0,6,0.00
2013-11-6,66.7,54.3,46.3,52.7,48.8,44.3,97,83,59,30.50,30.11,11,1,12,0.00
2013-11-7,61.6,51.2,42.7,55.7,42.5,27.6,98,74,48,30.16,29.97,25,4,26,0.01
2013-11-8,50.1,42.5,30.7,30.1,26.5,24.1,83,54,37,30.37,30.16,24,4,24,0.00
2013-11-9,56.1,40.6,27.2,32.4,28.8,25.1,93,66,37,30.40,30.16,15,2,15,0.00
2013-11-10,64.6,53.4,37.2,38.5,30.1,20.5,72,43,19,30.29,30.06,23,6,25,0.00
2013-11-11,58.4,45.8,30.5,33.1,27.7,25.3,83,52,30,30.35,30.17,11,2,13,0.00
2013-11-14,61.1,48.5,34.3,22.6,17.4,11.8,56,31,17,30.44,30.30,12,3,14,0.00
2013-11-15,59.6,45.5,29.0,49.4,31.4,20.6,98,62,25,30.34,30.21,12,1,12,0.53
2013-11-16,54.9,51.3,47.7,53.0,50.7,47.4,100,98,92,30.30,30.24,4,0,4,0.07
2013-11-17,60.7,55.4,52.7,60.2,55.4,52.4,100,100,99,30.25,29.82,15,0,15,0.23
2013-11-18,65.3,59.5,48.7,61.2,38.2,26.4,100,48,26,30.00,29.77,32,7,32,0.13
2013-11-19,50.6,44.1,35.9,29.4,27.1,25.3,71,51,40,30.36,29.99,22,5,27,0.00
2013-11-20,48.1,39.5,33.0,30.0,26.4,24.1,83,60,41,30.53,30.36,12,2,12,0.00
2013-11-21,49.7,44.6,40.0,43.3,37.8,29.2,86,77,64,30.57,30.43,7,0,9,0.00
2013-11-22,66.8,56.3,45.9,57.2,50.5,42.1,90,81,68,30.43,30.07,11,1,13,0.00
2013-11-23,59.6,47.7,33.2,51.7,31.8,14.5,75,55,30,30.26,30.07,35,7,38,0.00
2013-11-24,33.4,27.0,22.4,14.7,5.8,0.7,53,41,28,30.59,30.25,28,7,31,0.00
2013-11-25,35.9,28.3,19.2,21.9,12.0,6.3,76,51,36,30.61,30.41,11,1,11,0.00
2013-11-26,43.1,36.2,30.9,42.7,34.1,17.8,99,93,52,30.42,29.65,12,1,12,1.53
2013-11-27,46.1,35.9,26.7,44.4,28.2,12.5,99,74,54,30.18,29.58,29,7,29,0.06
2013-11-28,42.0,31.3,25.9,21.7,17.8,13.7,76,58,37,30.50,30.17,21,3,25,0.00
2013-11-29,47.6,35.1,24.2,25.3,22.2,18.8,86,61,39,30.72,30.49,12,2,13,0.00
2013-11-30,40.7,31.9,25.1,25.4,22.4,19.4,85,68,52,30.72,30.42,8,1,9,0.00
2013-12-1,56.8,37.8,21.5,31.7,26.3,19.6,94,67,33,30.42,30.06,9,1,10,0.00
2013-12-2,53.3,41.9,30.7,38.8,34.5,28.3,92,76,56,30.06,29.86,6,0,6,0.00
2013-12-3,59.2,46.4,35.9,44.9,39.9,33.5,93,79,56,30.00,29.89,6,0,7,0.00
2013-12-4,59.7,52.6,43.3,54.5,49.1,42.1,97,88,73,30.09,29.98,7,1,7,0.00
2013-12-5,64.5,59.5,54.3,62.4,57.8,53.5,98,94,87,30.10,29.97,8,1,13,0.02
2013-12-6,73.0,65.8,51.4,66.5,62.6,50.2,99,90,74,30.05,29.86,14,3,17,0.88
2013-12-7,51.5,43.4,38.3,50.4,37.1,30.7,96,79,68,30.51,30.03,15,4,16,0.11
2013-12-8,38.2,31.5,28.5,30.8,28.7,26.0,96,90,74,30.53,30.32,13,2,13,0.05
2013-12-9,49.0,38.7,31.6,45.6,36.9,30.7,98,94,76,30.32,30.08,8,1,11,0.40
2013-12-10,43.9,38.4,32.7,40.3,30.9,18.2,97,76,52,30.30,29.99,24,4,28,0.30
2013-12-11,48.3,36.6,29.3,24.1,20.3,16.9,67,52,33,30.45,30.29,14,2,18,0.00
2013-12-12,38.6,32.5,28.7,21.0,12.5,5.6,61,44,27,30.45,30.31,19,4,21,0.00
2013-12-13,48.6,37.3,29.0,27.0,17.6,11.2,73,45,31,30.39,30.27,13,3,14,0.00
2013-12-14,41.4,36.4,34.9,35.1,32.5,24.5,98,87,55,30.33,29.78,11,1,11,0.35
2013-12-15,44.9,39.8,35.0,39.7,31.8,25.5,98,74,57,30.06,29.72,24,6,29,0.00
2013-12-16,47.0,38.9,33.5,34.3,30.3,26.6,85,71,58,30.17,30.04,17,4,17,0.00
2013-12-17,56.2,41.8,29.9,38.5,32.8,24.0,93,73,44,30.13,29.92,31,5,35,0.08
2013-12-18,44.7,37.8,31.9,25.1,20.4,17.0,63,50,35,30.29,30.02,19,4,25,0.00
2013-12-19,66.3,48.4,32.7,30.8,25.5,18.0,66,43,22,30.27,30.17,18,2,20,0.00
2013-12-20,63.3,48.9,39.1,39.4,33.5,27.3,74,56,38,30.18,30.07,7,1,12,0.00
2013-12-21,66.5,56.9,44.4,61.7,50.4,38.7,89,79,69,30.11,29.96,17,2,20,0.00
2013-12-22,68.6,62.3,58.3,64.6,59.9,55.2,99,92,70,30.05,29.92,21,3,22,0.67
2013-12-23,62.1,52.3,36.6,61.8,47.4,27.3,99,84,67,30.23,29.95,23,5,24,0.82
2013-12-24,40.2,32.4,23.3,27.6,19.7,8.1,74,60,41,30.51,30.22,27,6,27,0.00
2013-12-25,36.5,26.7,17.4,15.4,11.9,7.9,79,54,37,30.60,30.41,12,2,13,0.00
2013-12-26,47.3,34.6,22.0,27.1,19.8,13.4,82,56,36,30.43,30.28,28,4,28,0.00
2013-12-27,52.3,37.8,25.8,27.0,21.2,17.2,78,54,29,30.50,30.37,9,1,11,0.00
2013-12-28,58.7,40.8,27.1,38.9,25.7,21.3,92,58,27,30.42,30.19,10,1,11,0.09
2013-12-29,53.0,44.7,39.4,46.2,40.9,38.3,98,87,69,30.19,29.69,19,4,20,1.07
2013-12-30,47.6,42.5,37.0,39.5,33.3,27.9,77,70,63,30.17,29.92,16,3,18,0.00
2013-12-31,45.0,38.2,32.2,28.9,22.4,16.8,77,54,33,30.38,30.14,26,4,26,0.00
2014-1-1,48.9,37.7,27.4,29.1,24.6,20.1,83,60,36,30.41,30.14,12,2,14,0.00
2014-1-2,40.0,33.8,27.3,37.0,30.1,21.1,97,87,65,30.14,29.66,29,1,30,0.15